Location: Unspecified
(0.0000°N, 0.0000°E)
Time: 04:26:11
(UTC+00:00)

Tiros 1 - Visible Passes

Search period start: 02 April 2015 00:00
Search period end: 12 April 2015 00:00
Orbit: 632 x 666 km, 48.4° (Epoch: 01 April)

Date Brightness Start Highest point End Pass type
(mag) Time Alt. Az. Time Alt. Az. Time Alt. Az.
02 Apr 7.5 18:22:00 10° NW 18:26:47 73° SW 18:31:36 10° SSE visible
03 Apr 9.8 04:55:13 10° S 04:58:00 16° SE 05:00:58 10° E visible
03 Apr 9.5 18:49:44 10° W 18:53:29 22° SW 18:57:09 10° S visible
04 Apr 7.8 05:20:13 10° SSW 05:24:45 54° SE 05:29:15 10° NE visible
05 Apr 9.7 04:06:54 11° SSE 04:09:10 15° SE 04:11:53 10° E visible
06 Apr 7.9 04:33:37 25° S 04:35:57 48° SE 04:40:25 10° NE visible
07 Apr 10.2 03:22:29 11° ESE 03:22:29 11° ESE 03:22:44 10° E visible
07 Apr 7.4 05:00:15 25° WSW 05:02:34 46° NW 05:06:58 10° NNE visible
08 Apr 9.0 03:49:01 29° ENE 03:49:01 29° ENE 03:51:32 10° ENE visible
08 Apr 9.0 05:26:49 10° W 05:29:19 14° NW 05:31:36 10° NNW visible
09 Apr 8.3 04:15:25 33° N 04:15:25 33° N 04:18:13 10° NNE visible
10 Apr 9.2 04:41:41 14° NNW 04:41:41 14° NNW 04:43:05 10° NNW visible
